Content
SEND FEEDBACK

Daily
Averages
Monthly
Summary
United States of America

PYGA BEACH, GUAM


Home > North America > United States > Guam
Elevation: 6 meters     Latitude: 13 17N     Longitude: 144 39E

WEATHER
 
SELECT A DAY
Number of Records: 354,649;   Date Range: 1/1/95 - 11/25/14
 
SHARE

PRINT THIS DATA

[ ← Previous Day ]
WEATHER ALMANAC - 1 MAY, 2013
[ Next Day → ]
[ °F ]   °C
Weather ElementAverageHighLow
Temperature26.3 °C30 °C (12:27 pm)24 °C (9:15 pm)
Dewpoint23.9 °C25 °C (1:30 pm)23 °C (2:21 am)
Humidity86.8 %100 % (9:15 pm)70 % (12:27 pm)
Barometer1009.1 hPa1010.5 hPa (10:17 pm)1006.8 hPa (3:55 pm)
Wind Speed20 km/h27.8 km/h (8:50 am)
Wind Gust37 km/h (1:55 pm)
Weather ElementAverage
Visibility14.2 km
Wind DirectionE (91.4 °)

Weather ElementTotal
Precipitation10.16 mm
Cooling Degree Days8.7 (Base 18.3)
Growing Degree Days17 (Base 10)
Averaged from 155 records on 1 May, 2013
WEATHER CONDITIONS BREAKOUT
WIND DIRECTION BREAKOUT
WEATHER BY HOUR - 1 MAY, 2013
[ °F ]   °C
Local TimeTemperatureDewpointHumidityBarometerVisibilityWind DirectionWind SpeedGust SpeedPrecipitationEventsConditions
12:53 AM26 °C24 °C89 %1010.2 hPa16.1 kmEast (80°)16.7 km/hScattered Clouds
12:55 AM25.8 °C23.9 °C89 %1010.2 hPa16.1 kmEast (90°)16.7 km/hScattered Clouds
1:02 AM26 °C24 °C89 %1010.2 hPa16.1 kmEast (80°)20.4 km/hMostly Cloudy
1:12 AM26 °C24 °C89 %1009.8 hPa16.1 kmEast (80°)18.5 km/hScattered Clouds
1:26 AM26 °C24 °C89 %1009.8 hPa16.1 kmEast (80°)14.8 km/hMostly Cloudy
1:34 AM26 °C24 °C89 %1009.5 hPa16.1 kmEast (80°)13 km/hMostly Cloudy
1:44 AM26 °C24 °C89 %1009.5 hPa16.1 kmEast (80°)18.5 km/hMostly Cloudy
1:51 AM26 °C24 °C89 %1009.5 hPa16.1 kmENE (70°)16.7 km/hMostly Cloudy
1:54 AM26 °C24 °C89 %1009.5 hPa16.1 kmENE (70°)20.4 km/hMostly Cloudy
1:55 AM25.6 °C23.9 °C90 %1009.1 hPa16.1 kmENE (70°)16.7 km/hMostly Cloudy
1:58 AM26 °C24 °C89 %1009.1 hPa16.1 kmENE (60°)16.7 km/hMostly Cloudy
2:09 AM25 °C24 °C94 %1009.1 hPa14.5 kmENE (70°)22.2 km/hRainLight Rain
2:21 AM25 °C23 °C89 %1009.1 hPa16.1 kmENE (70°)14.8 km/hPartly Cloudy
2:55 AM25.3 °C23.9 °C92 %1008.8 hPa16.1 kmENE (70°)18.5 km/h0 mmPartly Cloudy
3:23 AM26 °C24 °C89 %1008.5 hPa16.1 kmEast (80°)13 km/hMostly Cloudy
3:33 AM26 °C24 °C89 %1008.5 hPa16.1 kmENE (70°)22.2 km/hMostly Cloudy
3:46 AM26 °C24 °C89 %1008.5 hPa16.1 kmEast (80°)18.5 km/hMostly Cloudy
3:50 AM26 °C24 °C89 %1008.5 hPa16.1 kmEast (80°)18.5 km/hMostly Cloudy
3:55 AM25.7 °C24 °C90 %1008.5 hPa16.1 kmEast (80°)16.7 km/hMostly Cloudy
4:02 AM26 °C24 °C89 %1008.5 hPa16.1 kmEast (80°)18.5 km/hLight Drizzle
4:10 AM26 °C24 °C89 %1008.5 hPa16.1 kmEast (100°)20.4 km/hLight Drizzle
4:12 AM26 °C24 °C89 %1008.5 hPa16.1 kmEast (100°)16.7 km/hScattered Clouds
4:41 AM26 °C24 °C89 %1008.5 hPa16.1 kmEast (90°)22.2 km/hMostly Cloudy
4:43 AM26 °C24 °C89 %1008.5 hPa16.1 kmEast (90°)18.5 km/hScattered Clouds
4:55 AM25.8 °C23.7 °C88 %1008.5 hPa16.1 kmEast (90°)20.4 km/h0 mmScattered Clouds
4:59 AM26 °C24 °C89 %1008.5 hPa16.1 kmEast (90°)18.5 km/hMostly Cloudy
5:01 AM26 °C24 °C89 %1008.8 hPa16.1 kmEast (90°)20.4 km/hMostly Cloudy
5:02 AM26 °C24 °C89 %1008.5 hPa16.1 kmEast (90°)22.2 km/hMostly Cloudy
5:04 AM26 °C24 °C89 %1008.5 hPa16.1 kmEast (90°)20.4 km/hMostly Cloudy
5:07 AM26 °C24 °C89 %1008.8 hPa16.1 kmEast (90°)20.4 km/hMostly Cloudy
5:08 AM26 °C24 °C89 %1008.8 hPa16.1 kmEast (90°)20.4 km/hMostly Cloudy
5:12 AM26 °C24 °C89 %1008.8 hPa16.1 kmEast (90°)22.2 km/hScattered Clouds
5:24 AM26 °C24 °C89 %1008.8 hPa16.1 kmEast (90°)22.2 km/hMostly Cloudy
5:40 AM26 °C24 °C89 %1008.8 hPa16.1 kmEast (90°)20.4 km/hScattered Clouds
5:43 AM26 °C24 °C89 %1008.8 hPa16.1 kmEast (100°)16.7 km/hMostly Cloudy
5:45 AM26 °C24 °C89 %1008.8 hPa16.1 kmEast (90°)20.4 km/hMostly Cloudy
5:52 AM26 °C24 °C89 %1009.1 hPa16.1 kmEast (90°)14.8 km/hMostly Cloudy
5:54 AM26 °C24 °C89 %1009.1 hPa16.1 kmEast (90°)18.5 km/hMostly Cloudy
5:55 AM25.8 °C23.8 °C89 %1009.1 hPa16.1 kmEast (90°)18.5 km/hMostly Cloudy
5:57 AM26 °C24 °C89 %1009.1 hPa16.1 kmEast (90°)18.5 km/hMostly Cloudy
6:00 AM26 °C24 °C89 %1009.1 hPa16.1 kmEast (100°)18.5 km/hMostly Cloudy
6:04 AM26 °C24 °C89 %1009.1 hPa16.1 kmEast (90°)18.5 km/hMostly Cloudy
6:07 AM26 °C24 °C89 %1009.1 hPa16.1 kmEast (80°)18.5 km/hMostly Cloudy
6:15 AM26 °C24 °C89 %1009.1 hPa16.1 kmEast (90°)18.5 km/hScattered Clouds
6:22 AM26 °C24 °C89 %1009.1 hPa16.1 kmEast (90°)20.4 km/hMostly Cloudy
6:48 AM26 °C24 °C89 %1009.1 hPa16.1 kmEast (80°)18.5 km/hMostly Cloudy
6:53 AM26 °C24 °C89 %1009.1 hPa16.1 kmENE (70°)24.1 km/hMostly Cloudy
6:55 AM26.2 °C23.8 °C87 %1009.1 hPa16.1 kmEast (80°)22.2 km/hMostly Cloudy
7:02 AM26 °C24 °C89 %1009.1 hPa16.1 kmEast (80°)20.4 km/hMostly Cloudy
7:32 AM27 °C24 °C84 %1009.5 hPa16.1 kmEast (90°)18.5 km/hMostly Cloudy
7:33 AM27 °C24 °C84 %1009.5 hPa16.1 kmEast (80°)18.5 km/hMostly Cloudy
7:38 AM27 °C24 °C84 %1009.5 hPa16.1 kmEast (80°)24.1 km/hMostly Cloudy
7:45 AM27 °C24 °C84 %1009.5 hPa16.1 kmEast (80°)20.4 km/hScattered Clouds
7:48 AM27 °C24 °C84 %1009.5 hPa16.1 kmENE (70°)18.5 km/hMostly Cloudy
7:52 AM27 °C24 °C84 %1009.5 hPa16.1 kmEast (80°)18.5 km/hScattered Clouds
7:55 AM26.8 °C24 °C85 %1009.5 hPa16.1 kmEast (80°)20.4 km/hScattered Clouds
7:56 AM27 °C24 °C84 %1009.5 hPa16.1 kmEast (80°)22.2 km/hMostly Cloudy
8:13 AM27 °C24 °C84 %1009.5 hPa16.1 kmEast (80°)22.2 km/hMostly Cloudy
8:21 AM27 °C24 °C84 %1009.5 hPa16.1 kmEast (90°)22.2 km/hMostly Cloudy
8:24 AM27 °C24 °C84 %1009.5 hPa16.1 kmEast (80°)24.1 km/hScattered Clouds
8:44 AM27 °C24 °C84 %1009.5 hPa16.1 kmENE (70°)24.1 km/hMostly Cloudy
8:47 AM27 °C24 °C84 %1009.5 hPa16.1 kmENE (70°)24.1 km/h35.2 km/hMostly Cloudy
8:50 AM27 °C24 °C84 %1009.5 hPa16.1 kmEast (80°)27.8 km/hMostly Cloudy
8:55 AM27.2 °C23.6 °C81 %1009.5 hPa16.1 kmEast (80°)24.1 km/hMostly Cloudy
8:57 AM27 °C24 °C84 %1009.5 hPa16.1 kmEast (80°)20.4 km/hScattered Clouds
8:58 AM27 °C24 °C84 %1009.5 hPa16.1 kmEast (80°)22.2 km/hMostly Cloudy
9:00 AM28 °C24 °C79 %1009.5 hPa16.1 kmEast (80°)22.2 km/hScattered Clouds
9:01 AM28 °C24 °C79 %1009.5 hPa16.1 kmEast (80°)22.2 km/hMostly Cloudy
9:04 AM28 °C24 °C79 %1009.5 hPa16.1 kmENE (70°)24.1 km/hScattered Clouds
9:07 AM28 °C24 °C79 %1009.5 hPa16.1 kmENE (70°)24.1 km/hMostly Cloudy
9:11 AM28 °C24 °C79 %1009.5 hPa16.1 kmENE (70°)22.2 km/hMostly Cloudy
9:12 AM28 °C24 °C79 %1009.5 hPa16.1 kmEast (80°)22.2 km/hScattered Clouds
9:55 AM28.2 °C24.3 °C79 %1009.5 hPa16.1 kmEast (80°)25.9 km/hScattered Clouds
10:15 AM29 °C24 °C74 %1009.5 hPa16.1 kmENE (70°)25.9 km/hMostly Cloudy
10:17 AM29 °C24 °C74 %1009.5 hPa16.1 kmENE (70°)27.8 km/hScattered Clouds
10:55 AM28.4 °C24.1 °C77 %1009.1 hPa16.1 kmEast (80°)25.9 km/hScattered Clouds
11:08 AM28 °C24 °C79 %1009.1 hPa16.1 kmENE (60°)25.9 km/hMostly Cloudy
11:10 AM28 °C24 °C79 %1009.1 hPa16.1 kmENE (70°)25.9 km/hScattered Clouds
11:24 AM29 °C24 °C74 %1009.1 hPa16.1 kmEast (80°)25.9 km/hMostly Cloudy
11:34 AM29 °C24 °C74 %1009.1 hPa16.1 kmENE (70°)25.9 km/hScattered Clouds
11:55 AM28.9 °C23.9 °C74 %1008.8 hPa16.1 kmENE (70°)25.9 km/hScattered Clouds
12:18 PM29 °C24 °C74 %1008.5 hPa16.1 kmENE (70°)27.8 km/h35.2 km/hMostly Cloudy
12:21 PM29 °C24 °C74 %1008.5 hPa16.1 kmEast (80°)27.8 km/hOvercast
12:27 PM30 °C24 °C70 %1008.5 hPa16.1 kmEast (90°)25.9 km/hOvercast
12:32 PM29 °C24 °C74 %1008.5 hPa16.1 kmEast (90°)24.1 km/hOvercast
12:35 PM30 °C24 °C70 %1008.5 hPa16.1 kmEast (80°)25.9 km/hOvercast
12:55 PM29.1 °C24.3 °C75 %1008.1 hPa16.1 kmENE (70°)25.9 km/hMostly Cloudy
1:30 PM30 °C25 °C74 %1007.8 hPa16.1 kmENE (70°)25.9 km/hMostly Cloudy
1:40 PM29 °C25 °C79 %1007.5 hPa16.1 kmENE (70°)24.1 km/hMostly Cloudy
1:48 PM29 °C25 °C79 %1007.5 hPa16.1 kmEast (80°)22.2 km/hMostly Cloudy
1:55 PM29.2 °C24.5 °C76 %1007.5 hPa16.1 kmENE (70°)24.1 km/h37 km/hMostly Cloudy
2:10 PM29 °C24 °C74 %1007.5 hPa16.1 kmENE (70°)27.8 km/h35.2 km/hMostly Cloudy
2:21 PM29 °C24 °C74 %1007.5 hPa16.1 kmEast (80°)20.4 km/hScattered Clouds
2:36 PM29 °C24 °C74 %1007.1 hPa16.1 kmENE (70°)27.8 km/hMostly Cloudy
2:40 PM29 °C24 °C74 %1007.1 hPa16.1 kmENE (70°)25.9 km/hMostly Cloudy
2:52 PM29 °C24 °C74 %1007.1 hPa16.1 kmEast (90°)24.1 km/hMostly Cloudy
2:55 PM29.4 °C23.8 °C72 %1007.1 hPa16.1 kmEast (80°)24.1 km/hMostly Cloudy
3:03 PM29 °C23 °C70 %1007.1 hPa16.1 kmEast (90°)24.1 km/h35.2 km/hScattered Clouds
3:55 PM28.3 °C23.8 °C76 %1006.8 hPa16.1 kmEast (90°)22.2 km/hScattered Clouds
4:17 PM29 °C24 °C74 %1006.8 hPa16.1 kmEast (80°)22.2 km/hMostly Cloudy
4:20 PM28 °C24 °C79 %1006.8 hPa16.1 kmEast (90°)24.1 km/hScattered Clouds
4:55 PM28.3 °C23.7 °C76 %1007.1 hPa16.1 kmEast (80°)22.2 km/hPartly Cloudy
5:37 PM27 °C24 °C84 %1007.5 hPa16.1 kmEast (90°)24.1 km/hMostly Cloudy
5:41 PM27 °C24 °C84 %1007.5 hPa16.1 kmEast (100°)22.2 km/hScattered Clouds
5:55 PM27.2 °C23.4 °C80 %1007.8 hPa16.1 kmEast (100°)22.2 km/hPartly Cloudy
6:55 PM26.9 °C23.9 °C84 %1008.5 hPa16.1 kmEast (100°)20.4 km/hScattered Clouds
7:15 PM27 °C23 °C79 %1008.5 hPa16.1 kmEast (90°)16.7 km/hMostly Cloudy
7:43 PM27 °C23 °C79 %1009.1 hPa16.1 kmEast (100°)18.5 km/hMostly Cloudy
7:55 PM27 °C23.5 °C81 %1009.1 hPa16.1 kmEast (90°)18.5 km/hMostly Cloudy
8:06 PM26 °C24 °C89 %1009.5 hPa11.3 kmESE (110°)24.1 km/h35.2 km/hRainLight Rain
8:07 PM26 °C24 °C89 %1009.1 hPa8 kmESE (110°)24.1 km/h35.2 km/hRainLight Rain
8:15 PM25 °C24 °C94 %1009.5 hPa6.4 kmESE (120°)22.2 km/hRainLight Rain
8:16 PM25 °C24 °C94 %1009.5 hPa6.4 kmESE (120°)24.1 km/hRainLight Rain
8:27 PM25 °C24 °C94 %1009.5 hPa12.9 kmSE (130°)20.4 km/hOvercast
8:43 PM25 °C24 °C94 %1009.5 hPa14.5 kmSE (130°)22.2 km/hOvercast
8:44 PM25 °C24 °C94 %1009.5 hPa14.5 kmSE (130°)20.4 km/hRainLight Rain
8:49 PM25 °C24 °C94 %1009.8 hPa14.5 kmESE (120°)18.5 km/hRainLight Rain
8:52 PM25 °C24 °C94 %1009.8 hPa14.5 kmSE (140°)20.4 km/hRainLight Rain
8:55 PM24.7 °C23.7 °C94 %1009.8 hPa16.1 kmSE (130°)22.2 km/h1.02 mmRainLight Rain
9:01 PM25 °C24 °C94 %1009.8 hPa14.5 kmSE (140°)22.2 km/hRainLight Rain
9:08 PM25 °C24 °C94 %1010.2 hPa4.8 kmESE (120°)18.5 km/hRainHeavy Rain
9:09 PM25 °C24 °C94 %1010.2 hPa4.8 kmESE (120°)20.4 km/hRainHeavy Rain
9:10 PM25 °C24 °C94 %1010.2 hPa4 kmESE (110°)25.9 km/h35.2 km/hRainRain
9:11 PM25 °C24 °C94 %1010.2 hPa3.2 kmESE (110°)27.8 km/h35.2 km/hRainRain
9:12 PM25 °C24 °C94 %1010.2 hPa2.9 kmESE (110°)24.1 km/h35.2 km/hRainRain
9:13 PM25 °C24 °C94 %1009.8 hPa2.9 kmESE (110°)22.2 km/h35.2 km/hRainRain
9:14 PM25 °C24 °C94 %1009.8 hPa2.4 kmESE (120°)20.4 km/h35.2 km/hRainRain
9:15 PM24 °C24 °C100 %1009.8 hPa2.4 kmESE (120°)20.4 km/h35.2 km/hRainRain
9:16 PM24 °C24 °C100 %1009.8 hPa2.4 kmESE (120°)20.4 km/h35.2 km/hRainRain
9:18 PM24 °C23 °C94 %1009.8 hPa2.9 kmESE (120°)18.5 km/h35.2 km/hRainRain
9:19 PM24 °C23 °C94 %1009.8 hPa3.2 kmESE (120°)18.5 km/h35.2 km/hRainRain
9:21 PM24 °C23 °C94 %1009.8 hPa4 kmESE (110°)16.7 km/hRainRain
9:22 PM24 °C23 °C94 %1009.8 hPa4.8 kmESE (110°)16.7 km/hRainLight Rain
9:50 PM25 °C24 °C94 %1010.2 hPa12.9 kmSE (130°)9.3 km/hRainLight Rain
9:52 PM25 °C24 °C94 %1010.2 hPa12.9 kmSE (130°)7.4 km/hRainLight Rain
9:55 PM24.7 °C24 °C96 %1010.2 hPa12.9 kmSE (130°)9.3 km/h4.57 mmRainLight Rain
10:05 PM24 °C24 °C100 %1010.2 hPa16.1 kmSSE (160°)13 km/hOvercast
10:08 PM24 °C23 °C94 %1010.2 hPa16.1 kmSSE (160°)14.8 km/hOvercast
10:09 PM24 °C23 °C94 %1010.2 hPa16.1 kmSSE (160°)13 km/hOvercast
10:17 PM24 °C23 °C94 %1010.5 hPa12.9 kmSE (140°)13 km/hRainLight Rain
10:26 PM24 °C23 °C94 %1010.2 hPa6.4 kmESE (110°)7.4 km/hRainRain
10:30 PM24 °C23 °C94 %1009.8 hPa9.7 kmESE (110°)5.6 km/hRainLight Rain
10:40 PM24 °C23 °C94 %1009.8 hPa9.7 kmEast (100°)9.3 km/hRainRain
10:42 PM24 °C24 °C100 %1009.8 hPa9.7 kmEast (90°)9.3 km/hRainLight Rain
10:47 PM24 °C24 °C100 %1009.8 hPa11.3 kmEast (100°)11.1 km/hRainLight Rain
10:55 PM24.4 °C23.9 °C97 %1009.8 hPa11.3 kmEast (100°)13 km/h1.78 mmRainLight Rain
11:02 PM24 °C24 °C100 %1009.8 hPa8 kmEast (100°)13 km/hRainLight Rain
11:08 PM24 °C24 °C100 %1009.8 hPa12.9 kmEast (90°)11.1 km/hRainLight Rain
11:18 PM24 °C23 °C94 %1009.5 hPa14.5 kmEast (80°)11.1 km/hRainLight Rain
11:21 PM24 °C23 °C94 %1009.5 hPa12.9 kmEast (80°)9.3 km/hRainLight Rain
11:22 PM24 °C23 °C94 %1009.5 hPa12.9 kmEast (80°)9.3 km/hRainLight Rain
11:34 PM25 °C24 °C94 %1009.5 hPa11.3 kmENE (70°)14.8 km/hRainRain
11:50 PM25 °C24 °C94 %1009.1 hPa8 kmEast (80°)16.7 km/hRainLight Rain
11:52 PM25 °C24 °C94 %1009.1 hPa9.7 kmEast (100°)16.7 km/hRainLight Rain
11:55 PM24.5 °C23.8 °C96 %1009.1 hPa12.9 kmEast (100°)16.7 km/h2.79 mmRainLight Rain
Hourly data recorded from PGUA, located 0 kilometers away from Pyga Beach, Guam







STORIES FROM OUR PARTNERS